This demonstration page uses our WeatherBlox Daily Observations layout. Learn more.

Left ArrowRight Arrow

41.12389, -100.76542

Hourly Observations for July 10, 2015

Temp ( °F °C ) Dew Point ( °F °C ) Humidity (%) Winds ( mph kmh ) Pressure ( in mb ) Visibility ( mi km ) Precip ( " mm )
12:53 am 00:53 Clear 67 19.4 58 14.4 73 73 SSE 8 13 29.96 1014 10 16 0.00 0.00
1:53 am 01:53 Clear 66 18.9 58 14.4 75 75 SE 8 13 29.93 1014 10 16 0.00 0.00
2:53 am 02:53 Clear 64 17.8 58 14.4 81 81 SE 6 9 29.92 1013 10 16 0.00 0.00
3:53 am 03:53 Mostly Cloudy 65 18.3 59 15 81 81 SE 7 11 29.93 1014 10 16 0.00 0.00
4:53 am 04:53 Mostly Cloudy 65 18.3 60 15.6 84 84 SE 12 19 29.92 1013 10 16 0.00 0.00
5:53 am 05:53 Mostly Clear 62 16.7 59 15 90 90 ESE 6 9 29.91 1013 10 16 0.00 0.00
6:53 am 06:53 Sunny 63 17.2 61 16.1 93 93 ESE 8 13 29.91 1013 10 16 0.00 0.00
7:53 am 07:53 Sunny 66 18.9 63 17.2 90 90 SE 7 11 29.90 1013 10 16 0.00 0.00
8:53 am 08:53 Mostly Sunny 71 21.7 64 17.8 79 79 SSE 8 13 29.91 1013 10 16 0.00 0.00
9:53 am 09:53 Mostly Sunny 73 22.8 64 17.8 74 74 SE 7 11 29.92 1013 10 16 0.00 0.00
10:53 am 10:53 Partly Cloudy 75 23.9 65 18.3 71 71 SE 9 15 29.92 1013 10 16 0.00 0.00
11:04 am 11:04 Mostly Cloudy 75 24 64 18 69 69 SSE 9 15 29.83 1010 10 16 0.00 0.00
11:53 am 11:53 Mostly Cloudy 77 25 66 18.9 69 69 ESE 12 19 29.91 1013 10 16 0.00 0.00
12:53 pm 12:53 Mostly Cloudy 79 26.1 66 18.9 65 65 ESE 13 20 29.89 1012 10 16 0.00 0.00
1:16 pm 13:16 Mostly Cloudy 80 26.7 65 18.3 60 60 SE 14 22 29.80 1009 10 16 0.00 0.00
1:53 pm 13:53 Partly Cloudy 83 28.3 66 18.9 57 57 ESE 16 26 29.86 1011 10 16 0.00 0.00
2:53 pm 14:53 Mostly Cloudy with Light Rain 84 28.9 64 17.8 51 51 SSE 15 24 29.85 1011 10 16 0.00 0.03
3:53 pm 15:53 Mostly Cloudy with Light Rain 83 28.3 64 17.8 53 53 SSE 15 24 29.85 1011 10 16 0.00 0.03
4:53 pm 16:53 Partly Cloudy 86 30 64 17.8 48 48 SSE 13 20 29.83 1010 10 16 0.00 0.03
5:53 pm 17:53 Partly Cloudy with Light Rain 87 30.6 66 18.9 50 50 ESE 13 20 29.80 1009 10 16 0.00 0.03
6:53 pm 18:53 Sunny with Light Rain 85 29.4 65 18.3 51 51 SE 10 17 29.80 1009 10 16 0.00 0.03
7:53 pm 19:53 Partly Cloudy with Light Rain 80 26.7 66 18.9 62 62 ESE 12 19 29.81 1010 10 16 0.00 0.03
8:53 pm 20:53 Partly Cloudy with Light Rain 78 25.6 66 18.9 67 67 SE 7 11 29.82 1010 10 16 0.00 0.03
9:53 pm 21:53 Mostly Clear with Light Rain 75 23.9 67 19.4 76 76 SE 9 15 29.85 1011 10 16 0.00 0.03
10:53 pm 22:53 Clear with Light Rain 73 22.8 67 19.4 81 81 ESE 8 13 29.86 1011 10 16 0.00 0.03
11:53 pm 23:53 Clear with Light Rain 70 21.1 66 18.9 87 87 E 8 13 29.87 1011 10 16 0.00 0.03

Powered by AerisWeather